EW2309 Weather Reports


Display with metric or nautical units.
time (UTC)temp
F
wind
direction
speed
MPH
gust
MPH
rain 1hr
in
rain 24hr
in
rain mn
in
humidity
%
barometer
mb
20260505011543 66 215 0.0 3.0 0.00 0.00 0.00 50 1012.9
20260505010042 66 207 0.0 5.0 0.00 0.00 0.00 51 1012.8
20260505004545 67 210 0.0 6.0 0.00 0.00 0.00 53 1012.6
20260505003041 67 205 0.0 9.0 0.00 0.00 0.00 54 1012.4
20260505001547 68 194 1.0 6.0 0.00 0.00 0.00 54 1012.5
20260505000034 69 219 1.0 4.0 0.00 0.00 0.00 54 1012.3
20260504234528 70 217 1.0 6.0 0.00 0.00 0.00 55 1012.4
20260504233031 70 223 1.0 5.0 0.00 0.00 0.00 54 1012.3
20260504231526 71 230 2.0 7.0 0.00 0.00 0.00 51 1012.5
20260504230025 72 198 2.0 6.0 0.00 0.00 0.00 53 1012.6
20260504224525 72 209 1.0 6.0 0.00 0.00 0.00 53 1012.6
20260504223024 73 222 1.0 9.0 0.00 0.00 0.00 49 1012.6
20260504221528 74 268 2.0 7.0 0.00 0.00 0.00 47 1012.7
20260504220022 74 244 1.0 7.0 0.00 0.00 0.00 47 1012.6
20260504214523 75 217 1.0 10.0 0.00 0.00 0.00 47 1012.6
20260504213148 76 188 1.0 6.0 0.00 0.00 0.00 47 1012.6
20260504211503 76 197 2.0 8.0 0.00 0.00 0.00 47 1012.7
20260504210043 76 319 2.0 7.0 0.00 0.00 0.00 46 1012.7
20260504204541 76 176 3.0 8.0 0.00 0.00 0.00 46 1012.9
20260504203023 75 324 2.0 7.0 0.00 0.00 0.00 47 1013.0
20260504201526 76 216 2.0 11.0 0.00 0.00 0.00 48 1013.1
20260504200003 76 192 1.0 7.0 0.00 0.00 0.00 48 1013.3
20260504194502 76 202 3.0 8.0 0.00 0.00 0.00 46 1013.5
20260504193110 75 181 0.0 5.0 0.00 0.00 0.00 53 1013.6
20260504191538 75 166 0.0 6.0 0.00 0.00 0.00 50 1014.0
20260504190036 75 214 1.0 5.0 0.00 0.00 0.00 52 1014.3
20260504184520 74 241 0.0 6.0 0.00 0.00 0.00 54 1014.6
20260504183021 74 311 1.0 4.0 0.00 0.00 0.00 51 1014.6
20260504181513 74 200 2.0 5.0 0.00 0.00 0.00 50 1014.8
20260504180012 74 183 1.0 3.0 0.00 0.00 0.00 53 1015.0
20260504174509 74 207 1.0 7.0 0.00 0.00 0.00 51 1015.2
20260504173010 73 234 2.0 9.0 0.00 0.00 0.00 53 1015.4
20260504171503 72 136 2.0 8.0 0.00 0.00 0.00 51 1015.6
20260504140103 59 211 1.0 4.0 0.00 0.00 0.00 64 1017.4
20260504081534 48 200 0.0 2.0 0.00 0.00 0.00 74 1016.4
20260504044538 50 200 0.0 0.0 0.00 0.00 0.00 69 1017.6
20260504043033 51 200 0.0 0.0 0.00 0.00 0.00 69 1017.8
20260504041526 51 201 0.0 0.0 0.00 0.00 0.00 67 1017.9
20260504040026 52 202 0.0 1.0 0.00 0.00 0.00 65 1017.9
20260504034535 52 204 0.0 2.0 0.00 0.00 0.00 64 1017.8
20260504033035 53 203 0.0 3.0 0.00 0.00 0.00 64 1017.8
20260504031525 53 205 1.0 3.0 0.00 0.00 0.00 64 1017.9
20260504030024 53 208 0.0 1.0 0.00 0.00 0.00 64 1018.0
20260504024510 54 208 0.0 2.0 0.00 0.00 0.00 63 1017.7
20260504023005 54 180 0.0 2.0 0.00 0.00 0.00 64 1017.6
20260504021548 53 180 0.0 3.0 0.00 0.00 0.00 64 1017.6
20260504020048 53 180 0.0 2.0 0.00 0.00 0.00 66 1017.6
20260504014530 53 179 0.0 1.0 0.00 0.00 0.00 64 1017.5
20260504013035 54 180 0.0 1.0 0.00 0.00 0.00 64 1017.3